[[{"header":{"parameterUnit":"m.s-1","parameterCategory":1,"la1":30.2991,"la2":30.254,"lo1":-89.0895,"lo2":-89.0444,"dy":0.0017,"dx":0.0017,"nx":28,"ny":28,"refTime":"2025-12-22T09:00:00:Z","depth":0,"parameterNumber":2,"parameterNumberName":"U-component_of_WINDS"},"data":[0,0,0,0,0,0,0,0,0,0,0,0,0,0,0,0,0,0,0,0,0,0,0,0,0,0,0,0,0,0,0,0,0,0,0,0,0,0,0,0,0,0,0,0,0,0,0,0,0,0,0,0,0,0,0,0,0,0,-0.37,-0.37,0,-0.3779,-0.378,-0.3781,-0.3854,-0.3854,-0.3855,-0.3856,-0.3941,-0.3942,-0.3944,0,0,0,0,0,0,0,0,0,0,0,0,0,-0.3614,-0.3615,-0.3699,-0.37,-0.3701,-0.3779,-0.378,-0.3781,-0.3853,-0.3854,-0.3856,-0.3857,-0.394,-0.3942,-0.3944,0,0,0,0,0,0,0,0,0,0,0,0,0,-0.3668,-0.3616,-0.3699,-0.3747,-0.3752,-0.3779,-0.378,-0.3782,-0.3853,-0.3855,-0.3856,-0.3857,-0.394,-0.3942,-0.3944,-0.3932,0,0,-0.3951,-0.3952,0,0,0,0,0,0,0,0,-0.3665,-0.3671,-0.3739,-0.3744,-0.3749,-0.3808,-0.3781,-0.3832,-0.3853,-0.3815,-0.3856,-0.3858,-0.3896,-0.3902,-0.3914,-0.3936,-0.3939,-0.3951,-0.3952,-0.3953,-0.3954,0,0,0,0,0,0,0,-0.3661,-0.3668,-0.3731,-0.374,-0.3746,-0.3765,-0.3775,-0.3791,-0.3847,-0.3818,-0.3824,-0.3832,-0.3899,-0.3912,-0.3916,-0.3941,-0.3951,-0.3953,-0.3954,-0.3955,-0.3957,-0.3956,0,0,0,0,0,0,-0.365,-0.3665,-0.3729,-0.3734,-0.3709,-0.3766,-0.3776,-0.3788,-0.3847,-0.3857,-0.3831,-0.3835,-0.3907,-0.3914,-0.392,-0.3908,-0.3953,-0.3955,-0.3957,-0.3959,-0.3957,-0.3956,0,0,0,0,0,0,-0.3647,-0.3655,-0.3725,-0.3701,-0.3711,-0.3766,-0.3778,-0.3789,-0.3801,-0.3857,-0.3867,-0.3833,-0.3909,-0.3917,-0.3928,-0.3912,-0.3956,-0.3958,-0.396,-0.3958,-0.3956,-0.3886,0,0,0,0,0,0,-0.3645,-0.3653,-0.3648,-0.37,-0.3712,-0.3731,-0.3778,-0.3789,-0.3804,-0.3811,-0.3862,-0.3871,-0.391,-0.3924,-0.393,-0.3916,-0.396,-0.3962,-0.3959,-0.3957,-0.389,-0.3882,-0.3875,0,0,0,0,0,-0.3641,-0.3626,-0.3647,-0.3655,-0.3706,-0.373,-0.3737,-0.3781,-0.3803,-0.3798,-0.3834,-0.387,-0.3914,-0.3925,-0.3932,-0.3918,-0.3963,-0.396,-0.3957,-0.3893,-0.3883,-0.3875,0,0,0,0,0,0,-0.3571,-0.3633,-0.3658,-0.3658,-0.3688,-0.3742,-0.3737,-0.3769,-0.3794,-0.3799,-0.3854,-0.3865,-0.387,-0.3897,-0.3908,-0.391,-0.3943,-0.3942,-0.3892,-0.3883,-0.3876,-0.3869,-0.3962,0,0,0,0,0,-0.3555,-0.3568,-0.3623,-0.3618,-0.3631,-0.3682,-0.3694,-0.3725,-0.3759,-0.3772,-0.3809,-0.3841,-0.3862,-0.3875,-0.3898,-0.3895,-0.3907,-0.389,-0.3882,-0.3876,-0.3873,-0.3874,-0.3867,-0.3946,-0.3946,-0.3947,0,0,-0.3523,-0.3559,-0.3564,-0.3604,-0.3631,-0.3644,-0.3692,-0.3703,-0.3713,-0.3774,-0.3786,-0.3815,-0.3855,-0.3859,-0.3863,-0.3881,-0.3855,-0.3873,-0.3867,-0.3868,-0.3871,-0.3863,-0.3856,-0.3945,-0.3945,-0.3945,0,0,-0.3471,-0.35,-0.3498,-0.3524,-0.3564,-0.3598,-0.3598,-0.3647,-0.3668,-0.3681,-0.3727,-0.3742,-0.3777,-0.3803,-0.3821,-0.3781,-0.3815,-0.3788,-0.3748,-0.3748,-0.3742,-0.3737,-0.3721,-0.3715,-0.3786,-0.3785,-0.3785,0,-0.3426,-0.3446,-0.3494,-0.3502,-0.3519,-0.3574,-0.3574,-0.3598,-0.3643,-0.3654,-0.3674,-0.372,-0.3751,-0.3762,-0.3752,-0.3766,-0.3767,-0.3781,-0.3739,-0.3734,-0.373,-0.3716,-0.371,-0.3782,-0.3782,-0.3783,-0.3783,0,-0.3388,-0.3401,-0.3396,-0.3437,-0.3454,-0.3458,-0.3508,-0.352,-0.3551,-0.3583,-0.3597,-0.3636,-0.3668,-0.3674,-0.3704,-0.369,-0.3699,-0.3728,-0.3762,-0.3718,-0.3705,-0.37,-0.3776,-0.3778,-0.3779,-0.378,0,0,-0.3291,-0.3359,-0.3356,-0.3376,-0.3425,-0.3437,-0.3445,-0.3475,-0.3483,-0.3514,-0.3522,-0.3552,-0.3579,-0.36,-0.3635,-0.3635,-0.36,-0.3664,-0.3666,-0.3649,-0.3586,-0.3561,-0.3554,-0.3624,-0.3623,-0.3622,-0.3582,0,-0.3245,-0.3259,-0.3303,-0.3305,-0.3318,-0.3372,-0.3379,-0.3411,-0.3442,-0.3459,-0.3495,-0.3514,-0.355,-0.3563,-0.3566,-0.3603,-0.3587,-0.3607,-0.3631,-0.3632,-0.3616,-0.3548,-0.3522,-0.3481,-0.3577,-0.3577,-0.3576,0,-0.3192,-0.3218,-0.322,-0.3269,-0.3276,-0.3281,-0.3312,-0.3328,-0.3366,-0.3389,-0.3413,-0.3452,-0.3464,-0.3498,-0.3516,-0.3529,-0.3542,-0.3563,-0.3562,-0.3564,-0.3599,-0.3546,-0.347,-0.3462,-0.3569,-0.357,-0.357,0,-0.3118,-0.3154,-0.316,-0.3175,-0.3233,-0.3235,-0.326,-0.3299,-0.3315,-0.3343,-0.3354,-0.3385,-0.3401,-0.3424,-0.3471,-0.3491,-0.3484,-0.3522,-0.3504,-0.3502,-0.3497,-0.3496,-0.3419,-0.351,-0.351,-0.351,-0.351,0,-0.306,-0.3059,-0.3127,-0.313,-0.3131,-0.3184,-0.3184,-0.3214,-0.3249,-0.326,-0.3311,-0.3321,-0.3383,-0.3401,-0.3439,-0.3448,-0.3456,-0.3475,-0.3484,-0.3468,-0.3466,-0.3476,-0.3479,-0.3508,-0.3509,-0.3509,-0.3509,0,-0.2976,-0.3022,-0.3032,-0.3086,-0.31,-0.3098,-0.3145,-0.3151,-0.3187,-0.32,-0.3207,-0.3263,-0.3286,-0.3336,-0.3374,-0.3399,-0.3399,-0.3418,-0.3385,-0.339,-0.3369,-0.3369,-0.3294,-0.3286,-0.3383,-0.3382,-0.3381,0,-0.2935,-0.2935,-0.2989,-0.3,-0.3022,-0.3038,-0.3054,-0.3108,-0.3122,-0.3167,-0.3168,-0.3195,-0.3219,-0.3255,-0.33,-0.3329,-0.3348,-0.3319,-0.3352,-0.3336,-0.3345,-0.3343,-0.3343,-0.3311,-0.3309,-0.3308,-0.3307,0,-0.2856,-0.2879,-0.2899,-0.2927,-0.2944,-0.297,-0.2998,-0.3004,-0.3065,-0.3079,-0.3103,-0.3122,-0.3161,-0.3187,-0.3224,-0.3251,-0.3289,-0.3297,-0.3294,-0.3277,-0.3257,-0.3265,-0.3362,-0.3298,-0.3299,-0.33,-0.33,-0.3301,-0.2791,-0.2793,-0.2831,-0.2853,-0.288,-0.2905,-0.2913,-0.295,-0.297,-0.3004,-0.3036,-0.3056,-0.3097,-0.3149,-0.3175,-0.3193,-0.3212,-0.3208,-0.3207,-0.3204,-0.3197,-0.3256,-0.3201,-0.3201,-0.3201,-0.3202,-0.3202,0,-0.2713,-0.274,-0.2759,-0.2796,-0.2813,-0.2848,-0.2882,-0.2894,-0.2911,-0.2945,-0.2968,-0.2996,-0.3022,-0.307,-0.3101,-0.3107,-0.3125,-0.3113,-0.3112,-0.3117,-0.3179,-0.3177,-0.3098,-0.3098,-0.3098,-0.3098,-0.3098,-0.3098,-0.2673,-0.2679,-0.2707,-0.2727,-0.2756,-0.2775,-0.2791,-0.2816,-0.2843,-0.2871,-0.2893,-0.2924,-0.2964,-0.2998,-0.3025,-0.3039,-0.3047,-0.3029,-0.3047,-0.3103,-0.3113,-0.3122,-0.3121,-0.3031,-0.3031,-0.2984,-0.2984,-0.2983]},{"header":{"parameterUnit":"m.s-1","parameterCategory":1,"la1":30.2991,"la2":30.254,"lo1":-89.0895,"lo2":-89.0444,"dy":0.0017,"dx":0.0017,"nx":28,"ny":28,"refTime":"2025-12-22T09:00:00:Z","depth":0,"parameterNumber":3,"parameterNumberName":"V-component_of_WINDS"},"data":[0,0,0,0,0,0,0,0,0,0,0,0,0,0,0,0,0,0,0,0,0,0,0,0,0,0,0,0,0,0,0,0,0,0,0,0,0,0,0,0,0,0,0,0,0,0,0,0,0,0,0,0,0,0,0,0,0,0,1.0148,1.0148,0,1.0192,1.0192,1.0193,1.0136,1.0134,1.0132,1.013,1.0177,1.018,1.0183,0,0,0,0,0,0,0,0,0,0,0,0,0,1.0017,1.002,1.0148,1.0148,1.0149,1.0191,1.0192,1.0193,1.0136,1.0134,1.0131,1.0129,1.0176,1.018,1.0184,0,0,0,0,0,0,0,0,0,0,0,0,0,1.0069,1.0021,1.0147,1.0126,1.0124,1.0191,1.0192,1.0193,1.0137,1.0134,1.0131,1.0128,1.0175,1.0179,1.0184,1.0275,0,0,1.0199,1.0201,0,0,0,0,0,0,0,0,1.0066,1.0074,1.0128,1.0127,1.0126,1.0155,1.0163,1.0221,1.0138,1.0132,1.013,1.0126,1.0172,1.0177,1.0192,1.0278,1.028,1.0199,1.0202,1.0204,1.0205,0,0,0,0,0,0,0,1.0063,1.0072,1.0165,1.0129,1.0128,1.0115,1.0118,1.0174,1.0169,1.0132,1.0128,1.0134,1.0171,1.0188,1.0193,1.028,1.0199,1.0203,1.0206,1.0208,1.0445,1.0448,0,0,0,0,0,0,1.0061,1.0069,1.0164,1.0166,1.0088,1.0119,1.0124,1.0149,1.0168,1.0168,1.0137,1.0131,1.0181,1.0187,1.0194,1.0304,1.0204,1.0208,1.0211,1.0441,1.0445,1.0449,0,0,0,0,0,0,1.0059,1.007,1.0162,1.0117,1.0127,1.0125,1.0154,1.0151,1.0168,1.0172,1.0171,1.0155,1.0179,1.0188,1.0256,1.0305,1.0211,1.0215,1.0437,1.0442,1.0447,1.0523,0,0,0,0,0,0,1.0055,1.007,1.0104,1.0118,1.013,1.0222,1.0156,1.0154,1.0176,1.0169,1.0188,1.0188,1.0177,1.0249,1.0261,1.031,1.0219,1.0433,1.0439,1.0445,1.0516,1.053,1.0542,0,0,0,0,0,1.0051,1.0123,1.0106,1.0117,1.0172,1.0225,1.0232,1.0217,1.018,1.0215,1.0218,1.0188,1.0297,1.0257,1.0269,1.032,1.043,1.0438,1.0445,1.051,1.0527,1.0542,0,0,0,0,0,0,1.0116,1.0125,1.0105,1.0184,1.0204,1.0215,1.0259,1.0235,1.0267,1.0259,1.024,1.0245,1.0318,1.0325,1.028,1.041,1.0357,1.0368,1.0403,1.0419,1.0432,1.0429,1.0223,0,0,0,0,0,1.0139,1.018,1.0186,1.0256,1.0267,1.0261,1.0283,1.027,1.029,1.0299,1.0306,1.0328,1.0367,1.0393,1.0429,1.0517,1.0521,1.0558,1.0571,1.0582,1.0591,1.064,1.0657,1.0474,1.0474,1.0474,0,0,1.0188,1.0198,1.0226,1.0269,1.0283,1.0327,1.0269,1.0317,1.0351,1.0306,1.0371,1.0378,1.04,1.0479,1.0514,1.0488,1.0643,1.0591,1.06,1.0604,1.065,1.0667,1.0682,1.048,1.0479,1.0478,0,0,1.03,1.0312,1.0371,1.0386,1.0408,1.0404,1.0418,1.0433,1.0436,1.05,1.0469,1.0508,1.0575,1.0593,1.0611,1.0731,1.0706,1.0744,1.0812,1.0859,1.0874,1.0886,1.0931,1.0947,1.0753,1.0753,1.0753,0,1.0359,1.0424,1.0405,1.0457,1.0477,1.0439,1.05,1.0516,1.0548,1.0564,1.0534,1.0619,1.0631,1.0714,1.0744,1.0759,1.0776,1.0742,1.0873,1.0886,1.0897,1.094,1.0956,1.0758,1.0757,1.0757,1.0756,0,1.0495,1.0541,1.0586,1.0619,1.0645,1.0701,1.0692,1.072,1.0705,1.0705,1.0772,1.0785,1.0824,1.0843,1.0828,1.0925,1.0908,1.0876,1.0822,1.0919,1.0959,1.0975,1.0764,1.0763,1.0761,1.076,0,0,1.065,1.0672,1.0689,1.0704,1.0725,1.076,1.0815,1.0853,1.0879,1.0902,1.0949,1.1008,1.0978,1.0999,1.0986,1.1027,1.1124,1.099,1.0991,1.1016,1.1233,1.1258,1.1277,1.1107,1.1109,1.1112,1.1232,0,1.0764,1.0858,1.0844,1.0935,1.0978,1.0942,1.099,1.1009,1.101,1.1048,1.1049,1.1091,1.1048,1.1061,1.11,1.1104,1.1168,1.1095,1.1152,1.1154,1.1149,1.1298,1.1324,1.1437,1.1247,1.1249,1.1251,0,1.0909,1.0939,1.1035,1.105,1.1067,1.1111,1.1145,1.118,1.1202,1.1199,1.1223,1.1203,1.1259,1.1204,1.1282,1.1233,1.1255,1.1261,1.1265,1.1271,1.121,1.131,1.1472,1.149,1.1275,1.1273,1.1271,0,1.1015,1.1078,1.1144,1.1158,1.1177,1.1209,1.1218,1.1236,1.126,1.129,1.1306,1.1342,1.1363,1.1392,1.1383,1.1343,1.1464,1.1407,1.1465,1.1466,1.1493,1.1492,1.1664,1.1505,1.1505,1.1504,1.1504,0,1.1145,1.1205,1.1192,1.1233,1.13,1.1283,1.135,1.1356,1.1372,1.1415,1.1385,1.1426,1.141,1.145,1.1443,1.151,1.1519,1.152,1.1518,1.1524,1.1524,1.154,1.1533,1.1509,1.1508,1.1507,1.1506,0,1.1275,1.1268,1.1338,1.1351,1.1355,1.1405,1.1416,1.1455,1.1453,1.1507,1.1519,1.1518,1.1563,1.1556,1.1607,1.1602,1.1687,1.1674,1.168,1.1677,1.1737,1.1732,1.1926,1.1951,1.1774,1.1776,1.1777,0,1.1359,1.1405,1.1422,1.1448,1.146,1.1502,1.1526,1.1511,1.1538,1.1566,1.1602,1.1645,1.1678,1.1753,1.1757,1.1796,1.1786,1.1851,1.1791,1.1796,1.1789,1.1787,1.1793,1.1863,1.1865,1.1867,1.1868,0,1.151,1.1504,1.154,1.1575,1.1605,1.1632,1.1656,1.1679,1.1666,1.1698,1.1744,1.177,1.1822,1.1866,1.1902,1.1913,1.189,1.1886,1.1902,1.191,1.1912,1.1914,1.1714,1.1883,1.1881,1.188,1.1879,1.1879,1.1621,1.166,1.1679,1.172,1.1737,1.176,1.1798,1.1801,1.1839,1.188,1.1869,1.1921,1.1942,1.1989,1.2004,1.2046,1.2022,1.2045,1.2051,1.2057,1.2065,1.1904,1.2052,1.2052,1.2052,1.2051,1.2051,0,1.1771,1.1782,1.182,1.1855,1.1888,1.1861,1.1886,1.1916,1.1963,1.1984,1.2017,1.2071,1.2113,1.2121,1.2162,1.2194,1.2184,1.2205,1.2204,1.2207,1.2083,1.2066,1.2212,1.2212,1.2212,1.2212,1.2212,1.2212,1.1854,1.192,1.1917,1.1992,1.2002,1.2053,1.207,1.2092,1.2109,1.217,1.2205,1.2209,1.2226,1.2267,1.2305,1.2306,1.2324,1.235,1.2347,1.2232,1.2216,1.22,1.2184,1.2353,1.2353,1.2468,1.2469,1.247]}]]